Location: Newark
(25.4297°S, 49.2719°W)
Time: 00:05:53
(UTC+00:00)

Vanguard 1 Rocket - Pass Details

Date: 25 November 2019
Orbit: 650 x 4226 km, 34.3° (Epoch: 14 December)

Event Time Altitude Azimuth Distance (km) Brightness Sun altitude
Rises 18:49:53 0° 261° (W) 7,294 12.9 38.2°
Reaches altitude 10° 18:54:19 10° 258° (WSW) 6,617 13.1 37.3°
Maximum altitude 19:19:10 69° 174° (S) 4,402 11.4 31.7°
Drops below altitude 10° 19:42:51 10° 91° (E) 6,374 11.2 26.5°
Sets 19:47:00 0° 88° (E) 7,032 11.4 25.5°
